Home > Weather > Gotha > Past weeks

Flag for Germany Weather for the Past 2 Weeks in Gotha, Thuringia, Germany

Now
54 °F

Scattered clouds.


Feels Like: 48 °F
Forecast: 36 / 56 °F
Wind: 24 mph from Northwest

Location: Erfurt-Bindersleben

Current Time: May 3, 2016 at 2:53:07 PM

Latest Report: May 3, 2016 at 2:20 PM


Visibility: N/A

Pressure: 30.07 "Hg

Humidity: 77%

Dew Point: 46 °F

Location of GothaLocation

Historic Weather in Gotha — Graph

°F

Gotha Temperature Yesterday

Maximum temperature yesterday: 63 °F (at 3:20 PM)
Minimum temperature yesterday: 37 °F (at 6:50 AM)
Average temperature yesterday: 53 °F

High & Low Weather Summary for the Past Weeks

 TemperatureHumidityPressure
High63 °F (May 2, 3:20 PM)100% (Apr 25, 2:20 AM)30.42 "Hg (Apr 25, 2:20 AM)
Low28 °F (Apr 24, 4:50 AM)41% (Apr 18, 5:20 PM)29.47 "Hg (Apr 26, 1:50 AM)
Average44 °F68%30.00 "Hg
* Reported Apr 18 1:20 PM — May 3 1:20 PM, Gotha, Weather by CustomWeather, © 2016

Note: Actual official high and low records may vary slightly from our data, if they occured in-between our weather recording intervals... More about our weather records

Advertising

Gotha Weather History for the Previous 24 Hours

Scroll right to see more
 ConditionsComfort  
Time TempWeatherWind HumidityBarometerVisibility
1:20 PM
Tue, May 3
57 °FBroken clouds.16 mph67%30.07 "HgN/A
12:50 PM57 °FBroken clouds.16 mph63%30.07 "HgN/A
12:20 PM57 °FBroken clouds.13 mph63%30.07 "HgN/A
11:50 AM57 °FSunny.13 mph59%30.07 "Hg10 mi
11:20 AM57 °FSunny.12 mph63%30.07 "Hg10 mi
10:50 AM57 °FSunny.9 mph63%30.04 "Hg10 mi
10:20 AM57 °FPassing clouds.6 mph63%30.04 "HgN/A
9:50 AM55 °FPassing clouds.6 mph67%30.04 "HgN/A
9:20 AM54 °FSunny.6 mph72%30.04 "Hg10 mi
8:50 AM52 °FPassing clouds.6 mph72%30.04 "HgN/A
8:20 AM48 °FPassing clouds.5 mph76%30.04 "HgN/A
7:20 AM45 °FSunny.10 mph81%30.04 "Hg10 mi
6:50 AM43 °FSunny.10 mph81%30.04 "Hg10 mi
6:20 AM39 °FClear.10 mph87%30.04 "Hg10 mi
5:50 AM39 °FClear.10 mph87%30.04 "Hg10 mi
5:20 AM41 °FClear.10 mph87%30.07 "Hg10 mi
4:50 AM39 °FClear.9 mph87%30.07 "Hg10 mi
4:20 AM37 °FClear.9 mph87%30.07 "Hg10 mi
3:20 AM43 °FClear.9 mph81%30.07 "Hg10 mi
2:20 AM45 °FClear.9 mph76%30.09 "Hg10 mi
1:50 AM43 °FClear.8 mph81%30.09 "Hg10 mi
1:20 AM45 °FClear.8 mph81%30.09 "Hg10 mi
12:50 AM46 °FClear.8 mph76%30.12 "Hg10 mi
12:20 AM48 °FClear.8 mph71%30.12 "Hg10 mi
11:50 PM
Mon, May 2
46 °FClear.8 mph76%30.12 "Hg10 mi
11:20 PM50 °FClear.6 mph67%30.12 "Hg10 mi
10:50 PM52 °FClear.6 mph62%30.12 "Hg10 mi
10:20 PM52 °FClear.6 mph62%30.12 "Hg10 mi
9:50 PM55 °FClear.3 mph55%30.12 "Hg10 mi
9:20 PM55 °FSunny.2 mph55%30.12 "Hg10 mi
8:50 PM57 °FSunny.3 mph51%30.12 "Hg10 mi
8:20 PM57 °FSunny.3 mph51%30.12 "Hg10 mi
7:50 PM59 °FSunny.6 mph51%30.12 "Hg10 mi
7:20 PM59 °FPassing clouds.6 mph51%30.12 "HgN/A
6:50 PM61 °FPassing clouds.7 mph48%30.12 "HgN/A
6:20 PM61 °FPassing clouds.8 mph48%30.15 "HgN/A
5:50 PM61 °FPassing clouds.7 mph48%30.15 "HgN/A
5:20 PM61 °FPassing clouds.9 mph48%30.15 "HgN/A
4:50 PM61 °FPassing clouds.9 mph48%30.15 "HgN/A
4:20 PM61 °FPassing clouds.7 mph45%30.18 "HgN/A
3:50 PM63 °FPassing clouds.9 mph45%30.18 "HgN/A
3:20 PM63 °FPassing clouds.10 mph42%30.18 "HgN/A
2:50 PM61 °FPassing clouds.10 mph48%30.18 "HgN/A
2:20 PM61 °FPassing clouds.8 mph48%30.21 "HgN/A
Weather by CustomWeather, © 2016

See weather overviewHow to use our weather pages